Wind_Speed
85 86 86 86 86 85 85 85 84 85 85 84 84 83 82 82 78 69 62 63 69 72 71 70 69 69 68 66 65 65 66 67 67 67 68 68 68 70 69 68 69 68 67 65 61 58 62 63 58 49 41 38 39 38 35 35 37 38 40 42 44 42 42 44 45 41 40 38 32 32 37 37 38 41 39 35 37 42 44 41 36 37 41 41 40 45 51
86 86 86 85 85 85 84 84 83 83 83 83 82 82 81 80 77 67 59 59 64 68 69 67 65 65 66 66 65 65 66 67 67 68 69 70 70 72 72 71 70 69 67 66 64 61 61 64 63 58 51 43 39 38 37 36 35 37 38 39 43 46 45 44 46 45 44 43 40 35 35 39 42 43 42 39 37 38 42 42 37 36 37 35 35 40 42
85 84 84 83 83 82 81 80 80 79 78 78 78 78 77 77 74 65 56 54 58 62 63 63 62 61 62 65 65 65 65 66 68 70 72 73 74 75 76 75 71 67 66 67 67 65 64 65 64 63 60 51 44 41 38 36 37 37 37 36 39 45 47 46 48 51 51 50 49 46 42 41 44 44 41 38 36 36 39 44 43 43 41 35 34 37 37
82 82 81 80 79 78 76 75 73 72 71 71 71 71 71 71 68 61 54 50 52 54 56 57 58 59 61 64 66 65 66 68 71 74 75 77 79 79 79 78 74 70 70 73 73 70 68 68 66 66 64 57 50 48 45 42 43 42 38 35 38 42 47 50 51 53 53 50 48 46 43 40 43 46 44 39 37 34 35 43 48 47 45 42 39 39 37
78 77 75 74 72 71 69 67 65 64 63 62 61 61 61 61 59 55 50 48 47 47 50 53 55 56 57 60 62 64 66 69 69 70 72 75 77 78 78 79 79 76 75 76 77 75 73 71 69 69 70 66 59 53 53 53 49 44 42 42 42 43 47 52 53 51 49 48 46 44 45 44 42 44 44 42 40 37 36 41 44 45 48 47 43 39 36
72 70 68 66 64 62 60 57 55 54 51 49 48 48 49 49 47 45 44 43 41 40 43 47 50 51 52 53 54 55 57 61 63 64 65 67 70 72 73 76 79 79 76 76 77 77 76 74 74 74 73 71 67 58 53 54 51 43 43 47 47 46 49 50 49 49 47 46 45 45 47 44 37 37 42 43 41 39 38 37 36 39 47 47 44 43 39
65 63 60 58 55 52 50 47 45 42 38 35 35 36 36 36 36 35 36 37 35 33 35 39 42 45 47 48 49 49 48 50 54 57 59 60 60 62 66 71 75 78 77 76 77 79 78 78 77 77 75 74 72 65 56 52 52 49 46 47 49 50 51 49 45 44 45 45 46 47 47 45 38 34 37 39 40 39 40 39 35 35 39 41 42 46 47
57 55 53 50 48 44 41 38 35 33 30 27 27 28 27 27 28 27 28 28 27 28 30 34 38 39 40 43 46 46 46 47 48 49 52 54 53 55 61 62 65 71 73 73 77 80 81 82 81 79 77 76 74 69 61 53 52 54 52 49 50 52 53 52 47 40 39 41 44 47 49 47 45 38 33 35 39 37 36 35 32 32 35 37 39 43 47
51 50 47 44 41 37 33 30 27 26 25 23 23 24 23 22 22 22 22 21 22 25 27 29 32 33 35 39 42 43 43 45 47 47 48 50 51 55 60 58 56 62 68 71 74 79 81 84 85 83 79 78 77 73 66 60 56 53 51 49 50 53 54 56 54 46 40 39 40 43 47 49 50 48 42 38 35 30 27 28 28 29 32 32 35 39 41
45 45 44 40 35 31 27 25 23 21 19 18 19 20 19 18 18 20 20 17 18 23 26 25 25 26 29 34 38 40 42 42 45 47 48 49 49 51 57 59 57 57 62 68 72 76 80 82 84 86 84 80 80 78 72 68 63 54 47 48 51 51 53 56 59 58 52 43 36 34 36 45 56 58 52 46 38 30 27 29 30 30 27 24 27 30 32
40 40 40 36 30 27 24 22 20 17 16 16 17 18 17 17 17 19 19 17 17 21 23 23 22 23 25 30 35 38 40 40 41 42 43 45 46 46 49 56 59 56 56 64 70 73 77 78 79 84 86 82 81 82 76 72 69 60 50 50 51 48 49 53 58 62 59 48 39 35 35 44 55 56 51 48 45 38 36 36 35 31 28 26 25 25 27
37 36 35 32 27 24 22 20 18 16 15 16 17 16 16 15 15 17 18 17 16 18 19 19 21 23 25 28 32 35 36 37 38 38 36 37 42 45 45 48 56 58 54 57 67 72 74 74 73 76 83 84 82 83 79 74 72 66 55 52 51 48 48 52 56 60 60 52 46 45 46 46 45 43 45 48 47 41 41 44 43 38 32 26 24 25 27
34 32 30 27 25 23 21 19 18 16 14 14 16 16 15 15 15 16 17 17 15 16 17 17 19 22 24 25 28 31 32 34 36 35 33 33 37 43 45 42 47 58 61 58 60 67 70 70 69 70 76 82 84 84 80 75 73 68 59 52 48 45 47 52 56 59 60 56 53 53 54 48 40 38 43 46 45 45 47 47 44 41 38 32 27 28 29
32 30 26 23 23 22 21 18 17 15 12 12 14 15 15 14 15 15 16 17 15 14 16 17 18 20 23 24 25 26 26 29 32 33 33 32 33 38 44 40 36 49 66 65 54 58 67 68 66 68 71 75 81 83 80 76 74 68 60 52 46 44 46 51 54 58 61 59 56 58 58 52 44 43 45 45 45 48 50 49 47 45 45 43 39 37 35
30 28 25 22 21 20 19 17 16 14 12 12 13 14 14 14 14 14 16 16 14 12 14 16 17 19 22 24 25 25 22 24 28 30 31 31 31 34 39 39 32 36 58 68 55 51 63 67 63 65 69 72 79 83 79 76 75 65 55 52 49 45 46 47 46 48 55 58 58 59 60 58 53 50 48 45 44 45 47 49 51 51 51 50 48 46 42
29 27 25 22 20 19 18 17 15 14 13 12 12 13 13 13 13 14 15 16 14 11 12 15 16 18 21 22 24 24 21 21 23 26 28 28 29 32 35 36 33 30 43 61 60 50 57 66 62 61 66 69 77 83 79 76 75 66 53 52 52 46 42 43 41 38 42 50 57 61 63 62 58 53 50 48 47 47 46 45 48 51 53 54 54 54 50
28 26 24 23 21 19 18 17 16 15 14 13 12 12 12 12 13 14 15 16 14 11 12 15 16 17 18 19 21 22 21 21 21 22 24 25 25 28 32 34 34 30 32 48 58 52 51 62 65 62 63 65 71 81 82 78 76 70 58 51 52 48 41 39 39 40 41 43 49 56 60 60 58 54 51 51 53 53 49 47 47 49 50 54 56 56 53
27 25 24 22 21 20 19 17 16 15 14 13 12 11 12 12 13 14 15 16 14 11 12 15 15 15 16 16 18 20 20 20 20 20 21 22 21 23 27 31 33 32 29 35 46 47 45 52 62 66 65 64 66 75 82 82 79 73 63 55 53 52 45 39 37 41 46 44 42 45 49 52 53 51 48 48 51 53 52 51 51 51 49 50 52 52 52
27 25 23 21 20 19 18 17 16 15 14 13 11 11 12 12 12 14 15 15 13 11 12 15 14 14 15 16 16 19 19 19 20 19 18 19 19 20 23 26 30 30 28 28 33 39 40 41 51 63 69 67 67 71 77 81 82 77 68 60 57 54 50 45 41 42 45 46 42 40 43 47 48 46 45 46 46 48 51 53 53 53 52 50 49 48 49
27 24 22 21 19 17 16 16 15 14 14 13 11 11 11 11 12 13 15 15 13 11 13 15 14 13 14 15 15 17 19 20 19 18 17 18 19 19 19 21 25 28 29 27 26 31 35 35 40 55 68 70 68 70 72 74 79 82 76 67 62 59 54 49 46 45 45 45 45 43 43 46 45 42 43 46 46 47 50 53 53 53 53 53 50 47 45
27 24 22 20 18 16 15 14 14 13 12 12 11 11 11 11 11 12 13 14 12 10 13 15 13 12 13 14 15 16 18 19 19 18 18 18 20 19 17 19 22 24 28 30 25 24 29 29 30 44 64 71 68 70 72 70 71 79 82 76 67 61 57 52 49 50 50 48 48 48 45 43 41 40 42 46 49 49 49 51 52 53 52 51 47 43 42
26 24 22 20 18 16 15 14 14 13 12 11 11 10 11 10 10 10 11 13 12 10 12 14 13 12 12 13 15 16 16 17 18 18 18 18 19 19 16 17 20 21 23 27 26 22 25 26 24 32 55 70 69 67 70 69 66 68 76 80 74 65 62 58 53 53 56 54 51 51 48 43 40 40 42 46 49 50 49 48 49 51 50 48 44 41 41
25 24 22 20 18 16 15 14 13 12 11 10 9 9 10 10 9 9 10 11 11 9 11 12 11 12 13 13 14 15 16 16 17 17 17 18 19 18 16 17 19 20 20 22 22 19 20 26 25 26 42 63 69 67 67 70 68 63 64 73 77 73 68 65 59 56 58 59 55 51 50 50 47 44 44 47 49 50 50 49 48 47 45 45 44 42 43
25 24 22 21 19 17 15 14 12 10 9 7 6 7 8 8 9 9 8 8 8 8 8 10 11 12 13 13 13 14 14 15 16 16 17 18 18 17 18 19 20 20 20 20 20 19 17 24 28 27 34 52 64 66 65 67 68 65 60 63 72 74 71 70 68 63 59 59 56 50 49 53 56 53 50 50 52 52 51 48 47 46 43 42 42 43 44
26 24 23 21 19 17 15 13 11 9 7 5 4 3 4 5 6 6 6 6 6 6 8 10 10 11 11 12 12 11 11 12 14 14 15 17 17 18 20 22 22 22 19 17 20 22 18 21 29 29 32 45 57 61 63 63 63 63 60 58 64 69 68 67 68 66 63 60 57 53 50 52 57 59 56 53 53 54 51 45 41 41 40 38 39 42 44
26 24 23 21 19 17 15 14 13 11 9 7 6 4 2 0 2 4 4 5 6 6 7 8 8 8 9 10 11 10 10 11 13 14 15 17 17 19 22 24 24 23 19 14 18 22 19 19 27 30 33 43 51 53 56 59 59 60 59 56 56 60 60 58 59 61 63 60 55 54 55 55 55 57 57 54 52 51 49 44 40 39 38 37 38 41 43
24 23 22 20 19 17 15 14 14 13 12 10 8 7 5 3 3 4 5 6 7 5 4 5 6 5 6 7 8 8 8 9 11 13 15 16 17 19 22 24 24 23 20 15 17 21 18 19 26 30 33 42 48 46 44 48 53 59 61 58 54 54 54 53 52 53 56 58 53 51 56 60 59 57 54 52 51 50 48 45 42 40 38 37 37 39 40
22 21 20 19 17 16 15 14 13 13 12 10 9 8 6 5 4 5 6 6 6 5 4 3 3 4 4 5 5 6 7 7 8 11 14 17 19 19 20 22 22 22 21 17 16 19 18 20 26 29 33 41 45 44 40 38 41 50 59 60 56 54 52 51 50 49 50 50 46 44 49 55 60 62 58 52 49 48 47 44 41 38 37 37 37 38 39
23 22 21 19 17 16 16 15 14 13 12 11 10 9 8 7 7 6 6 6 6 6 4 3 3 3 3 3 3 5 6 7 8 11 14 18 20 20 19 20 21 21 20 16 15 18 20 23 27 29 33 39 40 39 41 38 34 39 50 55 55 54 52 48 47 49 50 46 42 43 47 49 52 59 62 58 53 50 47 45 43 41 38 37 36 38 40
26 24 24 22 20 18 17 16 15 14 13 13 13 12 11 10 10 9 8 7 6 5 4 4 3 2 1 0 2 4 6 7 9 11 14 16 18 20 21 21 20 20 18 14 15 17 20 24 29 31 33 37 37 34 36 36 33 35 42 46 49 54 53 47 43 46 48 44 40 43 49 49 46 49 54 55 55 51 47 46 47 46 43 40 36 36 39
26 25 24 24 23 22 20 19 18 17 16 15 15 14 14 13 12 12 11 9 7 6 5 5 4 3 3 3 3 4 6 7 8 9 11 14 16 20 22 22 21 20 16 13 14 16 19 26 33 34 32 35 37 33 30 30 32 35 37 36 42 51 54 48 43 43 44 42 38 40 47 49 46 45 46 49 50 46 40 38 41 44 45 43 40 39 39
27 26 25 24 23 22 21 20 18 18 18 17 16 16 16 15 15 14 12 11 9 8 7 6 6 5 4 5 6 6 7 8 8 8 9 12 15 18 21 22 21 18 14 12 13 14 17 26 34 34 32 33 34 31 28 27 28 31 31 31 35 45 51 47 40 38 42 45 41 39 45 48 45 42 42 45 47 44 38 35 35 37 39 40 40 40 40
28 27 27 25 24 23 22 21 20 19 18 18 17 17 16 16 16 15 14 12 11 9 8 7 6 6 6 6 7 8 8 9 10 10 11 13 16 19 20 19 17 15 14 14 14 12 13 21 29 32 30 29 28 26 24 24 25 26 27 27 32 40 44 38 28 24 31 39 40 40 44 47 47 43 41 41 43 42 39 36 36 36 36 37 37 38 38
29 28 28 27 26 25 23 22 22 21 20 19 19 18 17 17 16 15 14 12 11 10 9 7 6 7 9 8 8 9 10 14 16 16 16 17 18 19 19 17 17 17 16 14 14 14 14 18 25 28 24 21 20 19 18 19 20 21 21 24 32 40 39 29 20 16 20 29 36 40 40 41 41 41 40 41 42 40 38 37 36 35 35 34 34 35 36
30 29 29 29 28 27 26 24 23 23 23 22 22 22 21 21 20 18 16 15 13 12 12 11 10 10 11 10 9 11 14 18 21 20 18 18 18 18 19 18 17 16 15 15 16 18 18 21 25 25 20 16 16 17 15 15 17 18 18 19 25 33 33 26 20 16 16 22 31 37 36 35 35 36 36 37 38 38 37 36 35 35 34 33 33 34 34
31 30 29 29 28 27 26 26 25 25 25 24 25 25 25 25 24 23 22 20 19 17 17 16 14 13 12 11 12 14 15 16 18 19 18 19 20 21 21 19 16 15 18 22 24 25 25 26 25 21 16 13 15 16 15 12 11 13 16 17 18 21 24 24 21 18 17 19 25 30 31 29 30 31 30 30 32 33 33 31 31 31 32 32 32 31 30
32 31 30 28 28 26 26 25 25 26 25 26 26 26 26 24 23 22 21 21 21 21 22 22 21 18 15 13 13 13 14 16 18 18 18 20 22 22 20 17 15 18 24 28 30 30 29 25 20 17 15 14 16 17 15 10 7 6 7 12 15 17 19 19 19 19 19 19 20 23 26 26 26 27 26 25 26 28 27 26 25 25 26 26 27 27 26
31 30 30 29 28 27 26 26 26 27 27 27 28 28 26 24 21 20 20 21 21 21 23 24 23 20 17 16 14 13 13 16 17 17 18 20 20 19 18 18 19 22 23 24 25 25 22 16 12 13 15 16 15 14 11 6 2 3 3 5 11 16 19 20 20 20 21 22 21 21 21 21 23 25 26 26 26 25 23 22 22 23 23 24 25 25 25
30 29 29 29 28 27 27 26 26 27 27 28 28 28 25 23 22 22 22 22 22 23 23 23 22 20 17 18 19 18 16 17 18 20 21 19 17 18 21 23 24 23 21 20 19 17 15 13 13 14 15 15 13 12 9 5 3 3 3 5 8 13 18 21 22 21 22 24 25 23 19 16 16 19 23 25 26 25 23 21 22 22 22 23 23 24 24
31 31 32 33 32 30 29 27 26 25 25 25 26 25 23 21 22 24 23 22 23 25 25 24 22 19 16 16 18 19 18 18 19 21 20 17 15 19 23 25 24 23 21 20 20 17 15 16 16 14 12 12 13 13 11 8 5 5 6 6 8 11 14 18 19 19 19 20 24 26 24 19 16 16 19 22 24 24 23 22 21 21 21 22 22 24 25
31 33 34 35 34 33 33 31 29 27 25 24 24 24 22 21 21 22 22 22 22 24 24 22 20 18 16 16 17 18 18 19 20 20 18 17 19 22 23 23 23 23 23 22 20 18 17 17 16 12 10 10 11 12 10 8 6 6 7 8 9 10 12 14 16 16 16 17 19 22 22 19 16 16 18 20 22 23 23 22 21 21 21 21 21 23 24
33 34 34 34 33 33 32 31 30 28 27 26 25 25 24 22 20 19 19 20 21 23 23 22 20 19 19 19 19 20 19 18 18 17 17 18 21 23 22 20 21 23 23 23 20 18 19 20 19 16 15 14 13 12 10 8 7 6 6 8 9 8 9 10 12 13 14 16 17 18 18 17 15 15 16 18 20 21 22 22 22 21 20 20 20 21 22
33 33 32 30 29 30 30 29 28 29 28 27 26 26 26 24 22 20 20 20 20 21 23 22 21 20 20 19 20 21 20 18 17 17 17 19 19 19 20 20 21 22 23 23 20 19 20 20 19 16 16 17 17 16 13 12 11 11 10 9 8 8 8 8 8 9 11 13 14 15 15 15 15 15 15 17 18 20 21 21 21 21 21 20 20 21 22
31 32 32 30 28 29 30 29 28 27 27 25 24 24 24 24 23 22 22 22 22 22 23 23 21 19 19 19 21 22 22 20 19 20 20 20 18 16 17 18 20 22 23 22 19 17 19 19 17 15 15 17 18 18 17 16 15 14 13 12 10 9 9 9 8 8 9 10 12 14 15 16 16 16 17 18 19 20 21 21 22 23 23 23 23 23 24
28 28 30 29 27 27 29 29 28 27 26 23 21 21 21 22 23 23 23 23 23 23 22 21 20 19 19 20 20 21 21 20 19 18 19 19 19 18 18 18 18 20 22 21 17 14 16 17 16 14 14 16 17 16 16 16 15 13 11 10 10 9 9 8 8 8 8 8 8 9 11 12 14 14 15 16 17 17 18 19 20 21 22 22 23 23 23
25 25 26 27 27 26 29 31 30 29 26 22 19 19 19 20 21 21 21 22 22 22 22 22 20 20 20 19 18 18 19 20 18 17 16 17 18 19 18 18 18 19 21 19 16 14 15 15 14 12 13 14 14 12 11 11 11 10 8 5 5 5 6 6 6 6 6 6 6 6 5 6 7 7 8 9 9 10 12 13 14 15 16 18 18 19 19
25 24 25 27 27 26 28 31 31 28 25 21 19 18 18 18 19 20 21 21 22 22 22 22 19 18 18 18 17 17 18 19 18 17 16 15 16 17 18 18 18 18 18 17 16 15 15 15 13 11 10 11 10 10 9 9 9 8 7 5 4 4 4 5 5 4 3 3 3 2 2 2 2 2 3 3 4 5 6 7 9 10 12 13 15 16 17
23 22 24 27 26 24 25 29 30 27 25 24 23 20 18 18 19 20 21 22 22 22 22 22 18 16 17 18 17 18 19 19 18 18 17 15 15 16 18 18 17 16 15 15 14 14 15 15 13 12 11 9 8 8 9 10 9 8 7 6 5 5 5 5 5 4 4 3 2 1 1 1 1 2 3 3 4 5 6 7 7 9 9 10 11 13 15
19 19 23 26 25 23 25 28 29 27 26 26 24 21 20 21 21 20 21 23 23 23 23 22 19 17 18 19 19 19 20 19 19 19 19 17 17 18 18 17 17 16 14 13 12 12 13 13 12 12 11 8 6 6 7 6 6 6 6 5 5 4 4 4 4 5 4 4 3 2 1 1 2 3 4 5 6 7 8 8 9 10 10 11 11 12 13
17 19 24 26 24 22 24 27 29 27 25 23 21 21 22 23 22 21 21 22 23 23 23 22 21 19 19 19 19 19 19 19 19 20 19 17 17 17 17 16 16 15 13 12 11 11 12 13 12 11 8 6 6 6 5 3 2 2 2 2 2 1 1 1 2 2 3 3 2 2 1 1 2 3 4 5 6 8 9 10 11 12 12 13 13 14 14
18 23 25 25 23 21 24 29 31 28 25 23 22 21 22 23 23 21 21 21 21 22 23 24 23 19 17 17 18 19 19 18 18 18 17 16 16 15 14 13 13 12 11 11 11 11 12 12 10 8 7 7 7 6 5 4 3 3 3 3 2 2 1 0 1 1 1 2 3 2 2 2 3 4 5 6 7 8 9 11 12 13 14 15 16 16 16
24 25 24 23 22 22 24 28 30 28 25 25 25 24 23 24 24 23 22 20 21 22 24 24 22 19 18 18 19 19 19 19 18 17 16 16 16 15 13 12 11 11 11 10 10 10 12 11 9 8 9 9 8 7 7 6 6 4 3 2 3 3 2 1 1 1 1 2 3 4 4 4 5 6 7 7 8 9 10 12 13 14 15 16 17 17 18
Wind_Direction
302 301 300 299 298 298 297 296 295 294 293 291 290 289 287 286 284 280 272 269 272 272 269 268 265 262 261 257 252 250 248 246 245 243 242 241 239 238 237 237 237 235 233 231 229 228 230 228 219 214 221 234 240 237 235 242 252 254 249 248 246 237 228 233 237 234 232 230 231 243 252 251 244 238 231 226 230 236 237 233 228 231 240 244 241 239 240
303 302 301 300 299 298 297 296 295 293 292 291 289 287 285 284 282 278 270 266 268 268 268 265 261 258 257 253 249 246 244 243 241 239 238 237 236 235 234 233 233 233 231 228 226 222 224 228 225 214 208 212 224 235 235 231 236 247 247 241 243 244 235 227 230 231 227 222 220 224 238 247 248 244 236 229 226 228 232 233 228 229 237 243 243 242 246
303 302 302 301 300 299 298 296 295 293 291 289 287 285 283 281 279 275 268 263 263 264 264 261 257 254 252 250 247 244 240 238 237 235 234 233 232 232 231 230 229 229 227 224 223 220 219 223 223 218 212 206 205 215 227 231 230 234 241 237 233 241 244 235 229 230 227 224 223 222 227 236 245 249 245 236 228 224 227 229 229 233 236 236 237 237 240
305 305 304 303 302 300 298 296 294 291 289 286 284 282 280 278 276 273 267 261 259 258 257 255 252 250 247 245 244 241 237 234 232 232 231 230 230 230 228 227 226 224 223 223 222 219 217 218 219 218 214 207 199 198 204 216 224 224 227 231 228 231 240 241 236 234 232 232 230 225 222 228 239 249 253 248 237 232 230 227 229 236 237 233 236 237 233
308 308 307 306 304 302 299 296 293 289 286 283 281 279 277 276 274 272 267 262 257 254 252 250 249 249 249 247 245 241 238 235 232 231 233 232 231 231 229 228 226 224 222 222 222 219 216 215 216 215 212 207 200 195 195 201 211 217 215 218 223 225 232 238 240 238 234 233 230 222 218 223 233 243 252 255 249 243 237 232 234 234 230 233 241 240 231
312 312 311 309 306 303 300 296 292 288 285 283 280 278 277 276 274 273 269 264 259 254 251 249 247 247 248 249 248 245 242 239 235 233 234 236 235 233 231 230 228 225 221 219 218 217 214 212 213 213 211 210 205 198 195 197 201 206 209 212 216 219 225 233 239 240 235 231 228 223 218 217 224 238 246 249 250 246 240 239 242 236 230 236 242 236 231
317 317 315 313 309 305 301 296 291 286 284 283 283 281 280 279 277 274 272 269 264 257 251 248 245 244 244 247 248 248 246 241 238 235 235 237 237 235 233 232 231 228 223 218 216 216 214 211 212 212 210 211 208 200 195 195 195 196 202 211 216 216 218 224 232 238 237 231 224 223 220 210 209 227 241 245 247 247 244 244 244 240 237 238 235 231 232
321 321 320 316 312 309 304 298 293 286 282 281 282 283 283 283 281 278 274 272 268 262 254 248 244 241 241 243 244 245 245 242 238 236 236 235 233 232 232 231 231 230 227 220 214 214 214 211 211 210 209 208 206 201 194 191 192 193 195 203 215 219 217 217 221 228 234 234 225 219 218 211 203 208 223 236 243 245 246 248 246 241 239 237 232 229 231
324 325 323 319 316 314 309 302 296 290 285 282 280 281 281 282 281 277 272 269 265 260 253 247 244 241 239 241 242 243 243 242 239 236 236 236 231 228 228 227 226 228 227 222 216 213 213 213 211 209 207 206 204 200 195 190 190 193 193 196 208 221 223 219 218 217 219 226 226 219 216 213 208 205 207 219 233 241 249 260 261 252 244 237 235 236 236
325 327 327 323 318 317 314 307 301 297 290 283 276 275 276 276 274 271 268 265 261 256 252 249 248 244 239 239 243 244 242 241 240 237 236 238 236 232 228 224 221 223 224 223 219 214 213 213 212 209 207 205 204 201 196 192 190 190 192 194 198 211 223 222 218 218 217 214 215 219 220 218 218 216 209 208 214 218 229 248 259 259 252 245 245 251 254
323 326 328 327 321 317 316 311 305 300 292 282 276 271 270 270 267 266 266 264 262 258 252 249 249 246 239 237 240 242 240 237 237 237 238 240 240 238 235 227 221 218 220 222 220 216 213 211 212 211 207 204 203 202 198 193 190 188 192 198 197 203 218 222 217 216 217 211 203 206 214 221 226 224 217 216 220 214 209 219 231 239 248 258 261 260 259
321 324 327 329 327 321 318 314 307 301 290 281 275 271 271 270 265 265 265 261 261 261 253 248 248 243 237 237 239 240 239 236 235 237 240 241 239 237 237 233 224 218 217 221 221 218 215 211 211 212 209 204 202 201 198 193 189 188 192 199 199 199 212 221 219 216 216 211 202 199 206 216 223 223 219 223 229 224 213 217 222 222 228 245 252 249 249
319 322 325 329 330 326 322 316 310 302 289 276 271 271 272 271 267 267 266 260 260 262 255 250 251 245 238 239 241 241 240 239 237 239 243 244 240 235 235 236 230 221 221 224 222 219 218 214 211 213 212 206 202 202 200 194 189 190 192 195 194 195 205 215 217 216 216 213 206 205 211 214 214 216 219 220 223 224 222 223 225 219 215 220 224 230 241
319 320 322 325 328 328 324 319 312 305 291 274 270 272 273 270 268 268 267 264 265 265 257 250 251 247 240 239 241 242 243 242 241 242 244 244 242 238 236 239 236 225 224 227 223 218 220 217 210 212 215 211 205 202 200 196 191 190 192 193 191 191 200 211 215 215 215 214 211 213 218 219 215 219 225 223 221 223 224 225 223 216 212 215 217 220 230
319 318 317 318 322 325 325 321 314 308 297 282 275 274 272 269 267 267 268 267 265 263 258 252 248 244 240 240 241 242 244 245 244 244 244 243 240 239 238 239 241 231 226 227 225 218 218 218 212 207 211 213 208 204 200 196 192 190 190 194 194 192 198 208 216 218 216 214 213 215 219 221 221 223 226 224 223 223 223 224 222 216 215 218 219 220 224
321 318 315 313 315 318 321 320 315 309 302 291 280 274 270 267 266 266 268 268 265 264 262 257 250 243 241 243 244 244 244 247 247 243 241 243 240 237 236 235 237 238 229 226 228 224 215 216 216 210 207 209 209 206 202 196 192 190 190 191 192 192 196 202 208 215 217 215 214 217 221 223 225 226 225 224 223 224 224 225 225 222 220 219 220 224 227
325 320 315 312 311 311 314 315 313 310 305 296 285 275 269 268 267 266 269 269 267 271 269 262 254 247 245 246 246 244 244 248 251 244 240 245 244 238 236 232 231 238 234 226 229 230 217 212 215 215 212 211 209 206 204 199 195 192 190 186 185 188 194 198 200 205 212 214 215 217 222 227 229 229 228 226 226 227 228 228 230 231 227 222 223 229 235
330 326 320 314 309 307 307 307 308 308 305 298 290 279 271 269 266 266 271 272 272 276 275 266 260 255 252 250 245 242 245 252 255 249 244 247 246 238 236 232 228 233 236 229 229 232 224 213 211 212 212 212 211 208 205 203 199 194 189 187 188 192 197 200 199 201 207 211 213 215 219 225 228 228 228 227 227 229 230 231 234 237 236 231 230 234 238
335 332 328 323 316 310 306 304 302 303 301 297 291 282 275 270 266 267 272 273 272 277 275 268 264 261 258 252 244 241 246 252 255 253 248 244 239 234 232 230 228 231 233 232 233 233 227 216 210 208 206 206 209 209 207 205 202 196 190 189 195 200 203 202 199 199 203 206 209 211 215 221 225 226 226 227 227 228 230 231 234 236 238 238 235 235 237
340 337 334 331 327 321 315 310 305 301 298 294 288 282 277 272 267 267 270 271 271 276 274 267 263 263 260 254 248 243 243 248 252 251 248 241 233 229 225 221 224 230 228 229 237 237 228 220 213 208 204 202 205 208 207 206 204 201 196 195 200 205 206 204 201 200 200 202 205 210 216 222 223 223 225 226 226 228 230 232 233 235 237 238 236 235 237
344 342 338 335 332 329 325 319 312 306 300 294 287 281 278 274 269 266 268 271 274 274 273 271 267 266 263 257 253 247 242 246 250 247 245 241 230 223 220 215 216 222 224 224 231 237 232 227 220 210 205 202 203 205 205 204 204 204 202 202 204 206 205 205 204 203 200 200 203 208 214 219 220 220 222 225 226 227 230 232 233 235 236 237 237 237 237
347 346 343 340 336 331 327 323 317 310 301 295 288 280 277 274 268 264 269 274 276 274 274 275 270 265 264 260 256 253 247 248 251 248 244 238 228 222 221 217 210 210 217 222 225 230 233 230 224 212 206 203 202 204 205 203 202 203 205 206 207 208 208 206 204 205 205 206 208 212 214 215 216 216 218 223 226 227 229 232 233 235 237 238 237 236 235
352 351 350 347 343 339 335 331 326 319 307 298 290 281 274 267 258 260 270 275 278 279 277 273 267 261 263 262 257 256 253 249 247 248 243 232 226 225 222 215 208 203 206 211 211 213 223 226 223 215 208 205 202 201 204 204 202 201 204 208 209 211 211 209 206 206 210 213 216 220 221 219 218 218 219 222 226 227 227 229 230 232 234 235 234 234 234
359 358 357 356 353 349 347 344 340 337 329 316 301 281 268 257 252 259 271 277 283 288 282 272 267 264 265 267 263 258 254 245 238 239 237 225 221 224 221 216 212 203 197 197 194 191 204 218 220 218 211 206 204 202 202 203 204 202 203 206 208 210 212 211 209 209 213 215 216 222 226 223 221 224 227 228 230 229 229 229 229 229 232 233 233 234 234
4 4 4 5 5 4 4 4 1 359 359 354 342 307 269 250 252 267 283 293 298 298 289 279 274 270 268 269 265 257 250 240 232 231 229 221 219 221 219 217 216 208 199 194 191 189 192 204 213 218 211 204 204 204 203 204 205 205 203 204 206 208 210 211 210 211 215 216 216 225 232 228 224 225 228 230 231 232 232 233 231 231 234 235 234 234 234
6 7 8 9 12 16 21 25 26 27 31 35 37 39 54 135 274 293 307 315 319 313 298 291 289 281 272 270 268 260 251 243 236 232 228 222 220 218 216 217 217 214 212 204 191 189 190 194 205 214 209 200 199 203 205 207 209 206 203 203 204 206 208 209 208 211 214 214 217 228 236 233 227 225 225 227 230 231 232 233 233 232 234 235 234 233 234
7 10 12 14 18 24 28 31 34 37 39 42 45 46 51 51 357 333 328 323 326 327 312 297 296 290 278 275 270 255 244 242 238 230 222 215 210 208 212 218 221 220 221 213 189 185 187 188 196 206 206 199 198 201 205 209 210 207 204 204 204 205 205 206 207 209 212 212 218 231 238 235 231 228 225 227 231 232 231 231 231 231 233 234 232 232 234
8 9 11 14 19 24 27 27 28 30 32 36 40 40 37 31 5 345 340 336 335 338 331 309 304 300 284 274 260 239 228 228 225 215 206 199 195 195 204 217 220 220 223 218 194 184 185 183 189 200 204 200 201 206 208 206 205 205 205 206 207 206 205 205 206 206 206 207 214 227 236 236 233 229 227 229 233 234 231 229 229 232 235 235 233 233 235
15 15 15 16 17 18 21 22 22 25 31 35 36 34 28 21 16 10 6 360 353 349 348 348 344 327 298 273 244 219 202 192 193 194 192 190 187 186 197 212 214 213 218 217 197 185 181 179 186 198 202 199 201 209 213 209 205 204 203 203 206 206 203 202 204 204 205 210 217 224 230 233 231 229 229 230 234 236 234 232 233 236 237 236 237 237 238
26 27 28 29 29 28 29 31 32 34 38 37 32 30 27 23 22 23 21 14 7 3 4 13 17 3 336 190 177 175 162 161 173 183 185 187 185 185 193 204 206 205 210 209 196 184 173 174 186 197 200 199 200 206 212 213 209 203 199 200 205 207 204 203 205 205 208 217 225 227 228 230 230 229 229 230 233 237 238 237 237 237 237 238 240 240 240
33 35 36 37 39 40 40 42 43 42 42 40 36 34 35 34 31 28 29 30 29 28 29 35 48 71 99 111 129 145 142 146 160 172 176 181 184 185 189 193 196 201 203 196 189 181 167 172 187 194 194 197 201 205 209 210 205 202 201 202 204 206 206 207 210 213 220 230 236 232 228 228 229 229 228 227 228 232 236 238 237 238 239 242 243 242 241
35 36 36 36 38 40 40 41 43 44 44 44 44 42 40 39 37 34 33 34 36 40 48 57 68 86 109 116 117 121 123 125 133 147 162 172 177 178 181 185 191 196 189 170 166 167 166 176 186 189 188 193 200 205 207 206 202 201 204 204 202 203 206 207 210 220 233 242 245 237 227 224 226 228 228 228 229 232 237 239 239 238 239 242 243 244 242
34 35 36 36 37 38 40 42 44 46 48 49 49 49 48 46 45 43 41 43 47 48 50 62 81 87 88 95 100 104 112 122 129 140 150 156 162 168 172 177 181 176 161 149 147 150 165 183 186 184 183 190 197 202 205 205 204 206 208 207 200 196 198 203 209 219 230 237 240 236 229 226 229 232 234 234 234 235 238 240 239 239 240 242 242 242 241
33 34 35 36 37 38 40 43 45 48 51 51 51 50 49 48 47 46 44 44 46 47 45 51 71 73 64 62 69 82 104 117 119 122 131 138 146 155 158 158 159 155 148 144 147 150 162 176 177 174 175 181 187 191 196 198 201 206 209 208 201 195 196 207 222 225 225 230 232 231 230 231 234 237 238 238 238 237 239 241 242 241 241 242 243 243 241
35 37 39 40 42 43 44 48 51 54 55 55 55 53 51 48 47 46 45 46 48 51 51 50 51 54 55 60 77 94 108 112 109 109 118 126 132 138 140 139 143 147 144 140 139 140 147 159 165 168 173 174 171 174 183 190 199 207 210 206 205 206 212 224 234 229 223 226 226 226 227 231 233 232 233 235 236 236 237 240 242 241 242 244 246 246 244
37 40 42 44 45 47 48 49 50 52 54 55 55 52 49 48 46 44 46 49 52 56 57 55 57 62 68 78 91 98 103 106 105 106 112 120 124 126 123 119 121 132 137 133 129 130 139 151 158 163 171 174 166 166 176 181 185 201 209 203 197 203 214 223 229 226 217 214 216 219 222 224 225 225 225 229 232 233 233 235 237 238 240 242 244 244 242
38 40 41 41 41 41 42 41 41 42 44 46 46 44 43 45 44 42 42 45 49 56 59 57 57 62 71 82 90 92 93 96 100 105 115 120 121 120 116 111 119 133 137 133 131 133 138 143 143 144 155 169 171 172 177 171 138 132 182 200 201 201 204 209 217 220 214 206 206 209 211 211 213 216 216 218 220 221 222 224 228 231 233 236 237 238 239
40 39 39 39 38 37 37 37 39 41 42 42 42 41 42 46 49 47 46 47 50 53 53 49 46 49 59 73 82 88 92 94 96 104 114 115 114 116 119 119 123 129 132 131 131 133 134 129 121 126 140 153 161 162 167 176 161 96 119 183 205 207 204 203 207 210 208 203 200 198 200 205 210 213 213 211 211 213 217 221 226 230 232 234 236 238 240
41 41 41 40 38 37 38 39 42 45 46 46 44 43 43 48 53 51 47 47 47 47 44 42 42 47 59 75 84 88 92 96 99 103 105 104 108 120 125 123 122 126 129 131 131 132 127 111 100 107 118 121 122 129 142 169 220 208 177 181 192 197 200 205 210 214 216 217 216 215 213 214 217 218 217 216 218 223 227 229 230 232 234 236 238 239 241
39 42 44 42 38 37 37 39 42 45 47 48 49 48 48 51 53 49 44 43 46 47 46 46 50 55 64 77 84 86 88 95 101 100 95 96 113 124 123 120 121 125 130 133 134 131 119 101 91 95 106 103 100 115 139 159 166 166 180 195 194 194 199 205 210 216 221 223 224 225 226 228 229 224 219 219 222 227 229 231 232 234 237 239 241 242 244
37 41 43 40 37 36 35 36 37 40 44 49 52 53 52 52 51 45 41 43 49 51 48 46 52 62 68 72 79 84 89 98 103 97 91 101 117 119 115 114 114 116 123 128 125 118 112 107 104 111 123 118 108 113 129 141 143 153 178 193 193 195 200 202 206 214 219 217 214 217 221 225 226 222 219 220 222 225 229 233 236 239 241 241 241 242 244
35 40 42 40 37 36 35 34 34 37 40 45 48 51 52 52 51 49 47 48 51 52 49 48 55 66 72 74 77 80 86 99 105 99 100 114 117 105 99 107 113 114 119 124 118 109 110 113 111 115 125 128 123 117 114 116 126 144 171 188 189 187 189 192 198 208 214 212 209 210 214 217 218 217 218 220 222 225 230 234 238 241 242 242 242 243 245
30 35 40 42 42 40 39 38 37 37 38 41 46 50 53 53 53 55 58 58 55 55 57 57 58 64 70 73 73 73 81 98 110 107 109 121 118 97 89 102 114 116 119 123 120 112 108 105 99 100 111 117 115 111 108 110 119 131 143 160 175 179 177 180 190 202 209 211 211 212 215 219 221 221 222 224 226 228 231 235 239 242 244 243 243 244 246
27 29 36 42 46 47 47 46 43 39 37 39 44 50 54 56 55 57 62 63 61 60 62 62 61 64 70 71 70 73 83 97 108 108 107 112 115 104 94 99 109 115 120 123 121 111 104 101 99 98 102 106 109 110 109 106 107 114 120 122 126 138 149 157 165 176 188 200 209 214 218 221 223 225 227 228 230 232 233 236 239 242 243 244 244 245 246
26 28 35 41 43 45 48 47 42 37 34 35 41 48 53 58 60 61 61 61 60 61 64 65 64 68 74 76 74 77 85 93 103 108 105 103 106 109 105 100 105 114 119 120 119 114 109 108 106 102 98 97 99 103 108 110 110 110 108 99 93 97 110 121 128 132 140 155 173 189 202 210 215 221 226 229 231 233 235 238 240 243 245 247 247 247 247
22 24 34 40 40 41 43 42 37 33 31 32 40 48 51 53 56 59 59 59 59 61 66 68 66 67 73 78 79 84 89 92 97 105 106 101 104 110 111 107 109 117 122 122 122 123 119 111 101 97 99 98 93 92 100 110 113 114 110 97 83 83 90 97 105 111 115 126 137 146 161 180 193 203 212 220 229 237 241 245 248 250 252 254 256 256 256
12 14 29 38 38 38 38 36 33 32 33 34 38 46 50 49 49 51 55 59 61 64 69 70 67 65 69 75 80 89 95 95 96 101 105 104 105 111 116 115 112 116 124 128 127 128 128 120 107 102 110 110 99 92 93 95 95 96 97 101 109 111 102 96 98 101 97 95 100 111 132 153 173 193 211 224 237 248 255 259 259 259 260 262 264 265 265
4 10 28 38 38 37 37 35 36 39 43 42 40 43 49 52 51 52 56 61 63 65 68 67 62 60 68 76 85 95 101 100 98 99 102 102 102 107 114 116 112 112 119 123 122 127 137 137 127 120 123 123 110 102 106 105 94 78 66 70 87 102 104 100 95 92 92 90 87 101 210 224 230 243 254 262 266 268 270 271 271 270 270 270 270 269 267
2 16 34 39 38 37 37 36 39 46 51 51 51 53 56 57 56 55 58 62 62 62 66 68 66 66 74 84 93 100 102 101 100 99 101 104 106 106 109 112 113 114 116 117 119 129 140 143 139 133 128 125 124 127 125 110 84 58 46 47 59 71 82 88 86 83 86 95 105 118 182 248 250 247 250 255 259 262 266 268 270 273 275 275 275 275 275
12 30 39 39 38 40 41 42 46 53 59 62 66 69 67 64 62 61 62 64 64 65 70 73 72 70 74 84 92 98 101 103 104 102 98 99 104 107 110 113 116 118 117 119 128 140 146 147 150 150 137 113 114 134 141 118 60 46 52 60 68 69 68 70 68 63 60 59 66 78 79 303 283 276 270 263 259 259 261 262 262 263 265 265 266 267 269
31 40 41 40 42 47 49 47 48 54 61 67 71 71 71 71 71 68 66 66 69 71 71 71 69 69 74 82 87 90 95 101 105 104 100 96 100 107 112 113 114 116 115 116 126 141 146 145 148 147 126 105 110 134 148 139 126 133 143 140 136 155 205 259 39 27 4 358 350 338 335 329 309 296 289 283 278 274 271 268 266 264 262 262 263 264 264
43 46 46 46 48 51 51 47 43 46 57 69 74 74 73 73 72 68 65 66 70 71 70 68 67 71 79 85 87 91 97 101 101 99 97 95 98 103 108 110 111 113 114 114 120 132 135 132 132 132 129 129 137 146 143 133 129 138 162 166 153 160 191 223 243 275 287 295 297 296 296 294 289 285 284 282 281 279 277 275 274 272 269 267 266 265 264
Height
5676 5672 5668 5665 5662 5659 5656 5654 5651 5649 5648 5648 5646 5647 5647 5647 5652 5655 5646 5640 5647 5650 5652 5656 5656 5657 5666 5670 5672 5677 5680 5683 5687 5691 5693 5697 5701 5702 5705 5711 5713 5717 5722 5727 5732 5736 5737 5739 5744 5749 5756 5761 5764 5769 5773 5774 5774 5775 5776 5778 5781 5786 5790 5790 5793 5798 5801 5803 5804 5804 5804 5808 5810 5812 5816 5819 5819 5819 5821 5824 5828 5829 5829 5832 5834 5832 5833
5661 5657 5653 5649 5646 5642 5640 5637 5634 5632 5630 5630 5629 5628 5629 5630 5634 5638 5632 5626 5630 5633 5636 5641 5639 5641 5648 5651 5655 5660 5664 5668 5673 5676 5679 5682 5686 5688 5692 5697 5701 5705 5711 5714 5719 5725 5727 5731 5737 5740 5743 5749 5755 5762 5767 5770 5771 5770 5771 5774 5775 5776 5780 5784 5786 5790 5793 5795 5797 5797 5797 5798 5801 5804 5809 5814 5816 5818 5820 5822 5825 5825 5826 5829 5830 5828 5830
5646 5641 5637 5633 5629 5626 5623 5620 5618 5616 5613 5612 5611 5610 5611 5613 5617 5621 5618 5614 5616 5618 5621 5625 5624 5627 5631 5633 5638 5644 5649 5654 5657 5658 5661 5665 5667 5669 5674 5682 5686 5690 5695 5698 5705 5713 5717 5720 5727 5730 5733 5739 5745 5751 5759 5765 5768 5767 5768 5771 5771 5770 5772 5776 5778 5779 5782 5785 5787 5789 5791 5793 5795 5798 5803 5809 5813 5815 5816 5818 5819 5818 5820 5824 5825 5826 5829
5630 5626 5621 5617 5614 5610 5608 5605 5602 5600 5598 5596 5594 5594 5594 5596 5600 5604 5604 5602 5604 5606 5608 5610 5609 5611 5613 5614 5620 5627 5630 5634 5637 5640 5643 5647 5648 5651 5657 5665 5668 5671 5676 5682 5690 5699 5703 5707 5715 5722 5727 5732 5735 5737 5742 5750 5757 5761 5765 5767 5767 5766 5765 5766 5769 5772 5777 5782 5786 5790 5791 5791 5792 5794 5798 5802 5807 5811 5812 5813 5812 5813 5816 5819 5821 5823 5827
5616 5611 5607 5603 5599 5596 5593 5591 5588 5586 5584 5582 5581 5580 5580 5581 5585 5588 5589 5591 5594 5595 5597 5598 5598 5599 5599 5601 5607 5613 5615 5619 5626 5631 5632 5634 5637 5640 5646 5650 5651 5655 5662 5669 5676 5683 5687 5694 5702 5708 5712 5718 5723 5725 5727 5733 5740 5748 5756 5760 5761 5761 5759 5759 5762 5767 5772 5779 5785 5788 5790 5790 5790 5792 5794 5796 5800 5805 5807 5806 5807 5811 5813 5813 5816 5821 5823
5604 5599 5595 5590 5587 5584 5581 5579 5576 5574 5573 5571 5570 5570 5570 5571 5574 5575 5576 5579 5584 5587 5588 5588 5590 5591 5592 5593 5597 5603 5607 5611 5618 5622 5623 5624 5627 5630 5634 5635 5637 5643 5650 5655 5661 5668 5676 5682 5686 5692 5700 5708 5717 5721 5722 5726 5731 5736 5743 5750 5753 5754 5755 5755 5757 5761 5765 5772 5777 5782 5785 5788 5789 5790 5790 5791 5794 5797 5800 5801 5804 5808 5809 5808 5814 5819 5819
5594 5590 5585 5581 5577 5574 5571 5568 5566 5565 5565 5564 5563 5563 5564 5564 5566 5568 5567 5570 5575 5578 5579 5580 5581 5583 5586 5587 5590 5594 5598 5602 5606 5611 5613 5615 5617 5619 5621 5623 5628 5635 5640 5643 5648 5656 5667 5672 5674 5681 5693 5702 5709 5714 5717 5722 5724 5724 5730 5740 5746 5748 5750 5753 5755 5756 5759 5764 5769 5774 5779 5783 5786 5786 5787 5789 5789 5790 5794 5798 5801 5803 5804 5806 5812 5815 5815
5588 5583 5578 5573 5569 5566 5563 5561 5560 5559 5559 5560 5559 5559 5560 5560 5561 5562 5563 5565 5567 5570 5572 5572 5572 5575 5579 5581 5583 5586 5589 5592 5596 5599 5601 5604 5608 5608 5608 5614 5621 5626 5629 5633 5637 5644 5653 5659 5664 5672 5683 5693 5701 5707 5713 5718 5719 5717 5720 5729 5738 5742 5744 5748 5751 5753 5754 5757 5762 5767 5771 5775 5778 5781 5784 5785 5786 5787 5790 5793 5797 5800 5800 5803 5807 5809 5810
5582 5578 5573 5568 5564 5561 5558 5556 5555 5554 5555 5556 5556 5555 5556 5557 5558 5558 5558 5560 5562 5562 5564 5565 5566 5570 5573 5574 5576 5579 5582 5584 5586 5588 5590 5592 5595 5596 5598 5606 5613 5615 5619 5623 5627 5634 5640 5645 5654 5662 5671 5683 5692 5700 5707 5711 5712 5713 5715 5720 5728 5734 5737 5741 5745 5747 5748 5751 5756 5761 5766 5770 5771 5772 5775 5779 5783 5786 5788 5789 5791 5794 5797 5799 5801 5802 5804
5578 5574 5569 5564 5560 5558 5555 5553 5552 5551 5552 5553 5553 5552 5553 5554 5555 5554 5553 5556 5557 5557 5558 5560 5561 5565 5568 5569 5571 5573 5575 5577 5579 5581 5582 5583 5587 5590 5592 5598 5604 5608 5612 5616 5620 5627 5631 5636 5644 5652 5662 5673 5682 5690 5698 5701 5703 5707 5709 5711 5716 5723 5729 5733 5737 5739 5741 5746 5752 5757 5763 5764 5760 5761 5767 5773 5778 5782 5785 5787 5788 5790 5793 5796 5797 5798 5801
5575 5570 5566 5562 5558 5556 5554 5551 5550 5550 5550 5549 5550 5550 5550 5551 5552 5551 5551 5553 5554 5553 5555 5557 5558 5560 5562 5564 5565 5566 5568 5571 5572 5574 5576 5579 5583 5586 5587 5592 5598 5603 5607 5610 5614 5619 5622 5628 5635 5643 5654 5665 5673 5682 5689 5691 5695 5700 5702 5705 5708 5714 5722 5725 5729 5733 5737 5742 5748 5752 5755 5752 5750 5757 5767 5770 5772 5776 5780 5783 5786 5788 5790 5791 5793 5796 5799
5571 5568 5564 5560 5557 5554 5552 5550 5549 5548 5548 5547 5548 5548 5548 5549 5549 5549 5549 5550 5551 5551 5552 5553 5554 5555 5557 5559 5560 5561 5563 5566 5567 5568 5571 5575 5578 5579 5582 5586 5592 5598 5602 5603 5605 5610 5616 5623 5630 5637 5647 5657 5665 5674 5680 5683 5689 5693 5695 5699 5702 5706 5713 5718 5722 5727 5731 5738 5742 5743 5743 5745 5748 5757 5765 5767 5770 5773 5775 5778 5782 5786 5787 5787 5789 5792 5793
5567 5564 5561 5558 5556 5553 5551 5549 5548 5547 5546 5546 5546 5546 5546 5547 5547 5547 5547 5548 5549 5549 5549 5550 5551 5552 5553 5555 5556 5558 5560 5562 5563 5565 5568 5570 5572 5574 5577 5581 5586 5592 5593 5591 5595 5605 5614 5621 5627 5633 5641 5650 5658 5667 5673 5678 5684 5687 5690 5695 5697 5699 5706 5711 5715 5720 5724 5730 5733 5733 5736 5742 5746 5751 5756 5760 5764 5767 5770 5774 5778 5780 5781 5781 5783 5785 5786
5564 5561 5559 5556 5554 5552 5550 5548 5546 5546 5545 5545 5544 5544 5545 5545 5545 5545 5545 5545 5547 5547 5547 5548 5549 5550 5551 5552 5553 5555 5557 5558 5560 5562 5564 5566 5567 5570 5572 5575 5579 5584 5583 5582 5590 5602 5609 5615 5622 5628 5638 5647 5654 5659 5665 5671 5677 5681 5686 5690 5691 5692 5698 5704 5708 5712 5717 5722 5726 5729 5734 5738 5741 5746 5750 5753 5756 5759 5762 5767 5771 5772 5772 5774 5775 5777 5778
5561 5558 5556 5554 5552 5550 5549 5547 5545 5545 5544 5544 5543 5543 5543 5543 5543 5543 5543 5543 5544 5546 5546 5546 5546 5547 5548 5549 5550 5552 5554 5556 5557 5559 5560 5561 5563 5565 5568 5571 5575 5577 5577 5580 5588 5596 5602 5608 5615 5621 5630 5639 5646 5651 5658 5664 5671 5677 5681 5683 5684 5687 5692 5697 5702 5706 5711 5716 5721 5725 5727 5730 5735 5742 5745 5748 5751 5753 5755 5760 5762 5764 5767 5768 5769 5771 5774
5558 5555 5553 5552 5550 5549 5547 5546 5544 5544 5543 5542 5542 5542 5541 5542 5542 5542 5541 5541 5542 5544 5544 5543 5544 5545 5546 5547 5548 5549 5551 5553 5554 5555 5557 5558 5559 5561 5564 5567 5571 5573 5575 5578 5583 5589 5596 5603 5609 5615 5621 5628 5635 5643 5651 5658 5664 5669 5671 5674 5680 5685 5688 5690 5695 5701 5706 5711 5715 5718 5720 5724 5731 5737 5741 5745 5746 5746 5750 5755 5756 5758 5762 5764 5764 5766 5770
5555 5553 5551 5549 5548 5546 5545 5544 5543 5542 5541 5541 5540 5540 5540 5541 5541 5540 5540 5540 5541 5542 5542 5542 5542 5543 5544 5545 5546 5547 5549 5550 5551 5553 5555 5556 5556 5558 5560 5564 5567 5570 5573 5576 5580 5584 5590 5596 5603 5610 5617 5622 5628 5635 5644 5650 5654 5659 5664 5669 5675 5680 5682 5684 5689 5695 5701 5705 5709 5713 5717 5721 5726 5732 5736 5738 5739 5741 5747 5749 5748 5751 5756 5758 5760 5763 5766
5553 5551 5548 5547 5545 5544 5543 5542 5541 5540 5540 5539 5539 5539 5539 5539 5539 5539 5539 5539 5540 5541 5541 5540 5541 5542 5542 5543 5544 5545 5547 5548 5549 5550 5552 5553 5554 5556 5558 5561 5564 5567 5571 5574 5576 5579 5584 5590 5596 5603 5611 5618 5622 5629 5636 5642 5647 5653 5658 5662 5666 5670 5674 5678 5682 5688 5695 5700 5704 5709 5713 5716 5720 5726 5730 5731 5733 5737 5741 5741 5742 5745 5750 5753 5757 5761 5763
5552 5549 5547 5545 5543 5542 5541 5540 5539 5538 5538 5538 5538 5538 5538 5538 5538 5538 5538 5538 5539 5540 5540 5540 5540 5540 5541 5541 5542 5543 5545 5546 5547 5548 5549 5551 5552 5554 5556 5559 5562 5566 5569 5571 5573 5575 5580 5586 5591 5597 5605 5611 5616 5623 5630 5635 5641 5648 5652 5655 5659 5662 5666 5671 5676 5683 5689 5695 5700 5704 5708 5710 5715 5721 5723 5725 5728 5731 5733 5734 5737 5740 5744 5748 5753 5756 5759
5550 5547 5545 5543 5541 5540 5539 5538 5537 5536 5536 5536 5536 5537 5536 5537 5537 5536 5536 5537 5538 5539 5539 5538 5539 5540 5540 5540 5540 5541 5542 5543 5544 5545 5547 5548 5550 5551 5554 5558 5561 5564 5566 5569 5571 5573 5578 5583 5588 5593 5600 5606 5611 5618 5625 5631 5638 5643 5646 5649 5652 5655 5661 5668 5673 5678 5684 5690 5695 5699 5703 5707 5712 5716 5717 5719 5722 5724 5726 5729 5733 5736 5738 5741 5746 5752 5755
5549 5546 5544 5542 5540 5539 5537 5536 5535 5535 5534 5534 5535 5535 5535 5535 5535 5535 5535 5535 5537 5538 5537 5536 5537 5539 5539 5539 5539 5539 5540 5541 5542 5543 5545 5547 5548 5550 5553 5556 5558 5561 5563 5566 5569 5573 5577 5581 5585 5590 5596 5602 5608 5614 5621 5627 5633 5638 5641 5644 5647 5652 5658 5664 5668 5673 5678 5683 5688 5693 5699 5704 5708 5710 5712 5714 5716 5717 5720 5724 5728 5730 5733 5736 5743 5749 5752
5549 5546 5543 5541 5539 5538 5536 5535 5534 5533 5533 5533 5533 5534 5534 5534 5534 5535 5534 5534 5536 5537 5536 5536 5537 5537 5537 5537 5537 5537 5538 5539 5540 5541 5543 5545 5546 5549 5551 5553 5556 5559 5561 5564 5568 5572 5576 5578 5582 5586 5592 5598 5604 5611 5617 5623 5628 5633 5639 5642 5646 5650 5653 5658 5664 5669 5674 5679 5683 5688 5693 5698 5702 5704 5705 5707 5709 5711 5715 5719 5722 5726 5730 5734 5740 5745 5746
5549 5546 5543 5541 5539 5537 5536 5534 5533 5532 5532 5531 5532 5532 5532 5533 5533 5534 5534 5534 5535 5536 5536 5535 5536 5536 5536 5536 5536 5536 5537 5537 5538 5539 5541 5543 5545 5548 5550 5552 5554 5557 5560 5563 5567 5571 5574 5576 5580 5584 5589 5594 5601 5607 5614 5620 5624 5629 5635 5639 5644 5648 5651 5657 5663 5668 5672 5679 5684 5687 5690 5692 5695 5697 5698 5699 5702 5704 5708 5713 5718 5722 5727 5731 5734 5737 5740
5549 5547 5544 5541 5539 5537 5535 5534 5533 5532 5531 5531 5531 5531 5531 5532 5533 5533 5533 5533 5534 5535 5535 5535 5535 5535 5535 5534 5534 5534 5535 5536 5536 5538 5539 5542 5545 5547 5549 5550 5552 5555 5558 5561 5565 5569 5571 5574 5578 5582 5587 5592 5598 5604 5610 5616 5621 5626 5631 5637 5642 5646 5650 5656 5662 5666 5671 5678 5683 5686 5686 5685 5687 5690 5692 5694 5698 5700 5703 5709 5715 5720 5723 5726 5729 5732 5733
5550 5548 5545 5542 5540 5538 5536 5534 5533 5532 5531 5531 5531 5531 5531 5532 5533 5533 5533 5533 5534 5534 5534 5534 5533 5533 5533 5533 5532 5533 5533 5534 5535 5537 5539 5541 5544 5546 5547 5548 5550 5553 5556 5559 5563 5567 5570 5572 5576 5581 5585 5590 5596 5602 5608 5612 5617 5623 5630 5634 5639 5643 5648 5655 5661 5665 5670 5676 5680 5682 5681 5679 5680 5683 5687 5691 5695 5698 5702 5708 5714 5718 5721 5723 5725 5727 5727
5552 5549 5547 5544 5542 5540 5538 5536 5535 5534 5533 5532 5532 5532 5533 5533 5533 5533 5533 5533 5533 5534 5533 5532 5532 5532 5532 5531 5531 5532 5532 5533 5535 5536 5538 5541 5543 5546 5547 5548 5550 5553 5556 5558 5561 5566 5569 5572 5575 5579 5584 5588 5593 5600 5605 5610 5615 5622 5629 5633 5637 5642 5648 5654 5659 5663 5667 5673 5677 5676 5675 5675 5677 5680 5683 5687 5691 5695 5700 5706 5710 5713 5716 5718 5719 5721 5722
5554 5551 5549 5546 5544 5542 5540 5539 5537 5536 5535 5535 5534 5534 5534 5534 5534 5534 5534 5533 5533 5533 5532 5531 5531 5531 5531 5531 5531 5531 5532 5533 5534 5536 5538 5540 5543 5545 5547 5548 5550 5553 5556 5558 5560 5564 5568 5571 5574 5579 5583 5588 5593 5598 5604 5609 5614 5620 5626 5631 5635 5641 5646 5651 5655 5658 5663 5670 5674 5673 5670 5671 5674 5677 5680 5684 5688 5692 5697 5701 5704 5707 5710 5712 5714 5716 5718
5555 5553 5551 5549 5547 5545 5543 5541 5540 5539 5538 5537 5536 5536 5536 5535 5535 5534 5534 5534 5533 5532 5531 5531 5530 5530 5530 5530 5531 5531 5532 5533 5534 5536 5537 5540 5542 5544 5546 5548 5550 5553 5557 5559 5561 5564 5567 5570 5575 5580 5584 5589 5594 5598 5602 5607 5612 5618 5623 5629 5634 5639 5643 5647 5650 5655 5659 5666 5670 5670 5666 5667 5671 5674 5678 5681 5685 5688 5693 5697 5700 5703 5705 5707 5710 5712 5714
5557 5555 5553 5551 5549 5547 5545 5544 5542 5541 5540 5539 5538 5538 5537 5537 5536 5535 5534 5533 5533 5532 5531 5531 5530 5530 5530 5530 5531 5532 5532 5533 5534 5536 5538 5540 5542 5544 5546 5547 5550 5554 5557 5559 5562 5564 5567 5570 5575 5580 5584 5589 5594 5598 5602 5606 5611 5615 5621 5627 5632 5636 5640 5644 5647 5652 5655 5659 5662 5663 5662 5664 5667 5670 5673 5677 5680 5683 5687 5691 5695 5698 5701 5702 5705 5708 5710
5559 5557 5555 5553 5551 5549 5547 5546 5545 5543 5542 5541 5540 5539 5538 5538 5537 5536 5535 5534 5534 5533 5533 5532 5531 5531 5531 5531 5532 5532 5533 5533 5535 5536 5538 5540 5543 5545 5546 5548 5551 5554 5557 5560 5562 5565 5568 5571 5576 5581 5586 5590 5595 5598 5602 5606 5610 5614 5619 5625 5629 5633 5637 5641 5645 5649 5652 5654 5656 5658 5659 5661 5664 5666 5669 5673 5676 5678 5682 5686 5690 5693 5696 5699 5701 5704 5706
5563 5561 5558 5556 5554 5552 5550 5549 5547 5546 5545 5543 5542 5541 5540 5539 5539 5538 5537 5536 5536 5535 5534 5533 5533 5533 5533 5533 5533 5534 5534 5535 5536 5538 5540 5541 5544 5546 5548 5549 5552 5555 5557 5560 5563 5566 5569 5573 5577 5582 5587 5591 5595 5599 5602 5605 5609 5613 5617 5622 5626 5630 5635 5640 5644 5647 5648 5649 5652 5654 5656 5659 5661 5664 5666 5669 5671 5675 5678 5681 5684 5688 5691 5694 5697 5700 5701
5567 5564 5562 5559 5557 5555 5554 5552 5550 5548 5547 5546 5544 5543 5542 5541 5540 5539 5539 5538 5537 5536 5535 5535 5534 5535 5535 5534 5535 5535 5535 5536 5537 5539 5541 5543 5545 5547 5549 5551 5553 5556 5559 5562 5564 5567 5571 5575 5578 5583 5587 5591 5595 5599 5602 5605 5609 5613 5616 5620 5624 5628 5633 5639 5644 5645 5644 5644 5647 5651 5654 5656 5658 5660 5663 5666 5668 5672 5675 5678 5680 5683 5686 5689 5692 5694 5696
5571 5568 5566 5563 5561 5559 5557 5555 5553 5551 5550 5548 5547 5546 5544 5543 5542 5542 5541 5540 5539 5539 5538 5537 5537 5537 5537 5536 5536 5537 5537 5538 5539 5540 5542 5544 5546 5548 5551 5553 5555 5558 5561 5563 5566 5569 5572 5576 5580 5584 5589 5593 5597 5601 5604 5607 5610 5613 5616 5619 5622 5627 5632 5637 5640 5641 5641 5642 5645 5647 5649 5652 5654 5657 5661 5664 5666 5669 5672 5674 5676 5678 5681 5683 5687 5689 5691
5574 5572 5569 5567 5565 5562 5560 5559 5557 5555 5553 5552 5550 5549 5548 5547 5545 5544 5543 5543 5542 5541 5540 5540 5539 5539 5539 5538 5539 5540 5540 5540 5541 5542 5544 5546 5547 5550 5553 5555 5557 5559 5562 5564 5567 5570 5573 5577 5582 5587 5592 5596 5599 5602 5605 5608 5611 5613 5616 5619 5622 5625 5630 5632 5634 5636 5638 5640 5643 5644 5646 5649 5652 5655 5658 5660 5663 5665 5668 5670 5672 5674 5676 5679 5682 5684 5686
5578 5576 5573 5571 5569 5567 5565 5563 5561 5559 5557 5555 5554 5553 5551 5550 5548 5547 5546 5545 5545 5544 5543 5542 5542 5541 5541 5541 5542 5543 5543 5543 5544 5546 5548 5549 5551 5553 5555 5557 5559 5561 5563 5566 5568 5571 5575 5580 5585 5590 5593 5596 5600 5603 5606 5608 5611 5612 5615 5617 5620 5624 5627 5630 5631 5633 5636 5638 5639 5641 5644 5647 5650 5652 5654 5656 5658 5661 5664 5666 5668 5671 5673 5675 5677 5679 5682
5583 5580 5578 5576 5574 5571 5569 5567 5565 5563 5561 5560 5558 5557 5555 5553 5552 5551 5550 5549 5548 5547 5546 5545 5545 5544 5544 5544 5545 5546 5546 5547 5548 5549 5551 5552 5554 5556 5558 5560 5562 5564 5566 5568 5571 5575 5579 5584 5588 5592 5595 5597 5600 5603 5606 5608 5610 5611 5613 5615 5618 5622 5625 5628 5630 5632 5634 5636 5637 5639 5642 5645 5647 5648 5651 5653 5655 5658 5661 5663 5665 5667 5669 5671 5673 5675 5677
5587 5584 5582 5580 5578 5576 5574 5572 5569 5567 5565 5564 5562 5561 5559 5558 5556 5555 5554 5553 5552 5551 5550 5549 5549 5549 5548 5548 5548 5549 5550 5551 5552 5553 5554 5555 5556 5558 5561 5563 5565 5567 5569 5572 5575 5578 5583 5588 5591 5593 5596 5599 5601 5603 5606 5608 5609 5610 5612 5614 5617 5620 5623 5626 5628 5630 5632 5634 5635 5637 5640 5642 5644 5646 5649 5651 5653 5655 5658 5660 5662 5664 5666 5667 5669 5671 5673
5591 5589 5586 5584 5582 5580 5578 5575 5573 5571 5569 5567 5566 5564 5563 5561 5560 5559 5558 5557 5556 5555 5554 5554 5554 5554 5553 5552 5552 5552 5553 5554 5555 5556 5558 5559 5560 5561 5564 5566 5568 5571 5574 5577 5579 5582 5586 5589 5592 5595 5597 5600 5602 5604 5606 5607 5609 5610 5612 5613 5616 5618 5621 5624 5626 5628 5630 5632 5634 5635 5638 5641 5643 5645 5647 5649 5651 5653 5656 5658 5660 5661 5663 5665 5666 5668 5669
5595 5593 5590 5588 5586 5584 5581 5579 5577 5574 5572 5571 5569 5567 5566 5565 5564 5562 5561 5560 5559 5559 5558 5558 5558 5558 5558 5557 5557 5556 5556 5557 5558 5560 5561 5563 5564 5566 5568 5570 5572 5575 5578 5581 5583 5585 5588 5591 5593 5596 5598 5600 5602 5604 5606 5607 5609 5610 5612 5614 5615 5617 5619 5622 5625 5626 5628 5630 5632 5634 5637 5639 5642 5644 5645 5648 5650 5652 5654 5656 5657 5659 5661 5662 5664 5665 5666
5599 5596 5593 5591 5588 5586 5584 5582 5581 5578 5577 5575 5573 5571 5570 5569 5567 5566 5565 5564 5563 5562 5562 5562 5562 5562 5562 5562 5562 5561 5561 5562 5563 5564 5565 5567 5568 5570 5572 5574 5576 5579 5581 5584 5586 5589 5591 5593 5595 5597 5599 5601 5603 5605 5606 5608 5609 5611 5612 5614 5615 5617 5619 5621 5623 5625 5627 5629 5631 5633 5636 5638 5640 5642 5644 5646 5648 5650 5652 5654 5655 5657 5659 5660 5661 5662 5663
5603 5600 5597 5594 5592 5590 5587 5585 5583 5582 5580 5579 5577 5575 5574 5572 5571 5570 5569 5568 5567 5567 5566 5566 5566 5566 5566 5566 5566 5566 5566 5568 5568 5569 5570 5571 5573 5574 5576 5578 5580 5582 5585 5587 5589 5591 5593 5595 5597 5599 5601 5603 5605 5607 5608 5609 5611 5612 5613 5614 5616 5617 5619 5620 5623 5625 5627 5628 5630 5632 5634 5636 5638 5640 5641 5643 5645 5647 5649 5651 5653 5654 5656 5657 5659 5660 5661
5606 5603 5600 5598 5596 5594 5592 5589 5587 5586 5584 5582 5580 5578 5577 5576 5575 5574 5572 5571 5571 5571 5571 5571 5570 5570 5570 5570 5570 5570 5571 5572 5573 5573 5574 5575 5577 5579 5580 5582 5584 5586 5588 5590 5592 5594 5596 5598 5600 5602 5604 5605 5607 5608 5610 5611 5612 5613 5614 5615 5617 5618 5620 5621 5623 5624 5626 5628 5629 5631 5633 5635 5636 5638 5640 5642 5644 5645 5647 5649 5650 5651 5653 5654 5656 5657 5658
5610 5608 5606 5603 5601 5600 5597 5594 5592 5590 5588 5586 5584 5582 5581 5580 5579 5577 5576 5576 5576 5576 5575 5575 5575 5575 5574 5574 5574 5574 5574 5575 5576 5577 5578 5580 5581 5583 5585 5586 5588 5589 5591 5593 5595 5597 5599 5601 5602 5604 5606 5607 5608 5610 5612 5612 5613 5613 5614 5616 5617 5619 5620 5622 5623 5625 5626 5627 5629 5630 5632 5633 5635 5637 5638 5640 5642 5643 5645 5646 5648 5649 5650 5652 5653 5654 5655
5615 5613 5610 5607 5605 5603 5601 5598 5596 5594 5592 5591 5589 5587 5586 5584 5583 5582 5581 5580 5580 5579 5579 5579 5579 5579 5579 5579 5578 5578 5578 5580 5581 5582 5583 5584 5586 5587 5589 5590 5591 5593 5594 5596 5598 5600 5601 5603 5605 5607 5608 5609 5610 5612 5613 5614 5614 5615 5616 5617 5618 5619 5621 5622 5623 5625 5626 5627 5628 5630 5631 5632 5633 5635 5636 5638 5640 5641 5643 5644 5645 5646 5647 5649 5650 5651 5651
5620 5618 5614 5611 5609 5607 5604 5602 5600 5598 5596 5594 5593 5592 5590 5589 5588 5586 5585 5584 5583 5583 5583 5583 5583 5582 5582 5582 5583 5583 5583 5584 5585 5586 5587 5588 5590 5591 5592 5594 5595 5596 5598 5600 5601 5602 5604 5605 5607 5609 5610 5611 5612 5614 5614 5615 5616 5617 5618 5619 5620 5621 5621 5622 5623 5624 5625 5626 5628 5629 5630 5631 5632 5633 5634 5635 5637 5638 5639 5641 5641 5642 5643 5644 5646 5647 5648
5624 5622 5618 5614 5612 5610 5607 5604 5602 5600 5599 5598 5597 5596 5595 5594 5592 5591 5590 5589 5587 5587 5586 5586 5586 5586 5586 5586 5587 5587 5587 5588 5589 5590 5591 5592 5593 5594 5595 5597 5598 5599 5601 5603 5604 5605 5607 5608 5610 5611 5612 5613 5614 5616 5617 5617 5618 5618 5619 5620 5621 5622 5622 5623 5624 5625 5626 5626 5627 5628 5629 5630 5631 5632 5633 5633 5634 5635 5636 5637 5638 5639 5640 5641 5641 5642 5643
5626 5624 5619 5616 5614 5612 5610 5608 5606 5604 5603 5602 5601 5600 5598 5598 5596 5595 5594 5593 5592 5591 5590 5590 5590 5590 5590 5590 5590 5590 5590 5591 5592 5593 5594 5595 5596 5597 5598 5600 5601 5602 5604 5605 5606 5608 5609 5610 5612 5613 5613 5614 5616 5617 5618 5619 5619 5619 5620 5621 5621 5622 5623 5623 5624 5625 5626 5626 5627 5628 5629 5630 5630 5631 5631 5632 5633 5634 5634 5635 5636 5636 5637 5638 5638 5639 5640
5629 5626 5621 5618 5617 5616 5614 5612 5610 5608 5606 5605 5604 5603 5602 5601 5600 5599 5598 5596 5596 5595 5594 5594 5594 5594 5593 5593 5593 5593 5594 5595 5596 5596 5598 5599 5600 5600 5601 5603 5604 5605 5606 5607 5609 5610 5611 5612 5613 5614 5615 5616 5617 5618 5619 5620 5620 5620 5621 5621 5622 5622 5623 5624 5624 5625 5626 5626 5627 5627 5628 5629 5629 5630 5630 5631 5632 5632 5633 5633 5634 5635 5635 5636 5637 5637 5638
5631 5628 5623 5621 5621 5619 5617 5615 5614 5611 5609 5608 5608 5607 5605 5604 5604 5603 5601 5600 5599 5598 5598 5598 5598 5597 5597 5596 5596 5597 5598 5598 5599 5600 5601 5602 5602 5603 5605 5606 5607 5608 5609 5610 5611 5612 5613 5613 5614 5616 5617 5618 5619 5619 5620 5621 5621 5621 5622 5622 5623 5623 5623 5624 5624 5625 5625 5626 5627 5627 5628 5628 5629 5629 5630 5630 5630 5631 5631 5632 5632 5633 5634 5634 5635 5636 5636
5633 5629 5626 5625 5624 5624 5622 5620 5618 5615 5614 5613 5612 5611 5609 5608 5608 5607 5606 5604 5603 5603 5602 5601 5601 5601 5600 5600 5600 5601 5601 5602 5603 5603 5604 5605 5606 5607 5608 5609 5610 5610 5611 5612 5613 5613 5614 5615 5616 5617 5618 5619 5620 5620 5621 5622 5622 5622 5623 5623 5624 5624 5624 5624 5624 5625 5625 5626 5626 5627 5627 5628 5628 5628 5629 5629 5629 5629 5630 5631 5631 5632 5632 5633 5633 5633 5634
5635 5631 5629 5628 5628 5627 5626 5623 5621 5620 5618 5617 5616 5615 5614 5612 5611 5611 5610 5609 5608 5607 5606 5605 5604 5604 5605 5604 5604 5604 5605 5606 5606 5607 5608 5609 5609 5610 5611 5611 5612 5612 5613 5614 5614 5615 5616 5617 5618 5619 5620 5621 5621 5622 5622 5623 5623 5624 5624 5624 5624 5624 5624 5624 5624 5625 5625 5625 5625 5626 5626 5627 5627 5627 5627 5628 5628 5628 5629 5629 5630 5630 5631 5631 5631 5631 5632
5636 5634 5633 5633 5632 5631 5629 5626 5625 5624 5623 5621 5620 5619 5618 5617 5615 5615 5614 5613 5612 5610 5609 5609 5609 5609 5608 5607 5608 5608 5609 5609 5610 5611 5611 5612 5612 5613 5613 5614 5614 5615 5615 5616 5616 5617 5618 5619 5620 5621 5621 5622 5622 5623 5623 5623 5624 5624 5624 5624 5624 5624 5624 5624 5624 5624 5625 5625 5625 5625 5625 5625 5626 5626 5626 5626 5626 5627 5627 5627 5628 5628 5628 5629 5629 5629 5629